Year,Month,Day,Hour,Minute,Value (Times are PST for temperature in C)
2018,12,14,00,00,7.50
2018,12,14,00,01,7.50
2018,12,14,00,02,7.50
2018,12,14,00,03,7.40
2018,12,14,00,04,7.40
2018,12,14,00,05,7.40
2018,12,14,00,06,7.40
2018,12,14,00,07,7.40
2018,12,14,00,08,7.40
2018,12,14,00,09,7.40
2018,12,14,00,10,7.40
2018,12,14,00,11,7.40
2018,12,14,00,12,7.40
2018,12,14,00,13,7.40
2018,12,14,00,14,7.40
2018,12,14,00,15,7.40
2018,12,14,00,16,7.40
2018,12,14,00,17,7.40
2018,12,14,00,18,7.40
2018,12,14,00,19,7.40
2018,12,14,00,20,7.40
2018,12,14,00,21,7.40
2018,12,14,00,22,7.40
2018,12,14,00,23,7.40
2018,12,14,00,24,7.40
2018,12,14,00,25,7.40
2018,12,14,00,26,7.40
2018,12,14,00,27,7.40
2018,12,14,00,28,7.40
2018,12,14,00,29,7.40
2018,12,14,00,30,7.40
2018,12,14,00,31,7.40
2018,12,14,00,32,7.40
2018,12,14,00,33,7.40
2018,12,14,00,34,7.40
2018,12,14,00,35,7.40
2018,12,14,00,36,7.40
2018,12,14,00,37,7.40
2018,12,14,00,38,7.40
2018,12,14,00,39,7.40
2018,12,14,00,40,7.40
2018,12,14,00,41,7.40
2018,12,14,00,42,7.40
2018,12,14,00,43,7.40
2018,12,14,00,44,7.40
2018,12,14,00,45,7.40
2018,12,14,00,46,7.40
2018,12,14,00,47,7.40
2018,12,14,00,48,7.40
2018,12,14,00,49,7.40
2018,12,14,00,50,7.40
2018,12,14,00,51,7.40
2018,12,14,00,52,7.40
2018,12,14,00,53,7.40
2018,12,14,00,54,7.40
2018,12,14,00,55,7.40
2018,12,14,00,56,7.50
2018,12,14,00,57,7.40
2018,12,14,00,58,7.40
2018,12,14,00,59,7.40
2018,12,14,01,00,7.40
2018,12,14,01,01,7.40
2018,12,14,01,02,7.40
2018,12,14,01,03,7.40
2018,12,14,01,04,7.40
2018,12,14,01,05,7.50
2018,12,14,01,06,7.40
2018,12,14,01,07,7.40
2018,12,14,01,08,7.40
2018,12,14,01,09,7.40
2018,12,14,01,10,7.40
2018,12,14,01,11,7.40
2018,12,14,01,12,7.50
2018,12,14,01,13,7.50
2018,12,14,01,14,7.50
2018,12,14,01,15,7.50
2018,12,14,01,16,7.50
2018,12,14,01,17,7.60
2018,12,14,01,18,7.60
2018,12,14,01,19,7.60
2018,12,14,01,20,7.60
2018,12,14,01,21,7.60
2018,12,14,01,22,7.60
2018,12,14,01,23,7.60
2018,12,14,01,24,7.70
2018,12,14,01,25,7.60
2018,12,14,01,26,7.60
2018,12,14,01,27,7.70
2018,12,14,01,28,7.60
2018,12,14,01,29,7.60
2018,12,14,01,30,7.60
2018,12,14,01,31,7.70
2018,12,14,01,32,7.70
2018,12,14,01,33,7.70
2018,12,14,01,34,7.70
2018,12,14,01,35,7.70
2018,12,14,01,36,7.70
2018,12,14,01,37,7.70
2018,12,14,01,38,7.70
2018,12,14,01,39,7.70
2018,12,14,01,40,7.70
2018,12,14,01,41,7.70
2018,12,14,01,42,7.70
2018,12,14,01,43,7.70
2018,12,14,01,44,7.70
2018,12,14,01,45,7.70
2018,12,14,01,46,7.70
2018,12,14,01,47,7.70
2018,12,14,01,48,7.70
2018,12,14,01,49,7.80
2018,12,14,01,50,7.80
2018,12,14,01,51,7.80
2018,12,14,01,52,7.90
2018,12,14,01,53,7.90
2018,12,14,01,54,7.90
2018,12,14,01,55,8.00
2018,12,14,01,56,8.10
2018,12,14,01,57,8.10
2018,12,14,01,58,8.10
2018,12,14,01,59,8.20
2018,12,14,02,00,8.20
2018,12,14,02,01,8.20
2018,12,14,02,02,8.20
2018,12,14,02,03,8.20
2018,12,14,02,04,8.30
2018,12,14,02,05,8.30
2018,12,14,02,06,8.30
2018,12,14,02,07,8.30
2018,12,14,02,08,8.40
2018,12,14,02,09,8.40
2018,12,14,02,10,8.40
2018,12,14,02,11,8.40
2018,12,14,02,12,8.40
2018,12,14,02,13,8.40
2018,12,14,02,14,8.30
2018,12,14,02,15,8.30
2018,12,14,02,16,8.20
2018,12,14,02,17,8.20
2018,12,14,02,18,8.20
2018,12,14,02,19,8.10
2018,12,14,02,20,8.10
2018,12,14,02,21,8.10
2018,12,14,02,22,8.10
2018,12,14,02,23,8.10
2018,12,14,02,24,8.00
2018,12,14,02,25,8.00
2018,12,14,02,26,7.90
2018,12,14,02,27,7.90
2018,12,14,02,28,7.90
2018,12,14,02,29,7.90
2018,12,14,02,30,7.80
2018,12,14,02,31,7.80
2018,12,14,02,32,7.80
2018,12,14,02,33,7.80
2018,12,14,02,34,7.80
2018,12,14,02,35,7.80
2018,12,14,02,36,7.80
2018,12,14,02,37,7.80
2018,12,14,02,38,7.80
2018,12,14,02,39,7.80
2018,12,14,02,40,7.70
2018,12,14,02,41,7.70
2018,12,14,02,42,7.70
2018,12,14,02,43,7.70
2018,12,14,02,44,7.70
2018,12,14,02,45,7.70
2018,12,14,02,46,7.60
2018,12,14,02,47,7.60
2018,12,14,02,48,7.60
2018,12,14,02,49,7.60
2018,12,14,02,50,7.60
2018,12,14,02,51,7.50
2018,12,14,02,52,7.50
2018,12,14,02,53,7.40
2018,12,14,02,54,7.40
2018,12,14,02,55,7.40
2018,12,14,02,56,7.40
2018,12,14,02,57,7.40
2018,12,14,02,58,7.40
2018,12,14,02,59,7.40
2018,12,14,03,00,7.40
2018,12,14,03,01,7.40
2018,12,14,03,02,7.40
2018,12,14,03,03,7.30
2018,12,14,03,04,7.30
2018,12,14,03,05,7.30
2018,12,14,03,06,7.30
2018,12,14,03,07,7.30
2018,12,14,03,08,7.20
2018,12,14,03,09,7.20
2018,12,14,03,10,7.30
2018,12,14,03,11,7.30
2018,12,14,03,12,7.30
2018,12,14,03,13,7.30
2018,12,14,03,14,7.30
2018,12,14,03,15,7.30
2018,12,14,03,16,7.30
2018,12,14,03,17,7.20
2018,12,14,03,18,7.20
2018,12,14,03,19,7.10
2018,12,14,03,20,7.10
2018,12,14,03,21,7.10
2018,12,14,03,22,7.10
2018,12,14,03,23,7.10
2018,12,14,03,24,7.10
2018,12,14,03,25,7.00
2018,12,14,03,26,7.00
2018,12,14,03,27,7.00
2018,12,14,03,28,7.00
2018,12,14,03,29,7.00
2018,12,14,03,30,7.00
2018,12,14,03,31,7.00
2018,12,14,03,32,6.90
2018,12,14,03,33,6.90
2018,12,14,03,34,6.90
2018,12,14,03,35,6.90
2018,12,14,03,36,6.90
2018,12,14,03,37,6.90
2018,12,14,03,38,6.80
2018,12,14,03,39,6.80
2018,12,14,03,40,6.80
2018,12,14,03,41,6.80
2018,12,14,03,42,6.80
2018,12,14,03,43,6.80
2018,12,14,03,44,6.80
2018,12,14,03,45,6.80
2018,12,14,03,46,6.80
2018,12,14,03,47,6.80
2018,12,14,03,48,6.80
2018,12,14,03,49,6.80
2018,12,14,03,50,6.70
2018,12,14,03,51,6.70
2018,12,14,03,52,6.80
2018,12,14,03,53,6.80
2018,12,14,03,54,6.80
2018,12,14,03,55,6.80
2018,12,14,03,56,6.80
2018,12,14,03,57,6.80
2018,12,14,03,58,6.70
2018,12,14,03,59,6.70
2018,12,14,04,00,6.70
2018,12,14,04,01,6.70
2018,12,14,04,02,6.70
2018,12,14,04,03,6.60
2018,12,14,04,04,6.60
2018,12,14,04,05,6.60
2018,12,14,04,06,6.60
2018,12,14,04,07,6.60
2018,12,14,04,08,6.50
2018,12,14,04,09,6.50
2018,12,14,04,10,6.50
2018,12,14,04,11,6.40
2018,12,14,04,12,6.40
2018,12,14,04,13,6.40
2018,12,14,04,14,6.30
2018,12,14,04,15,6.30
2018,12,14,04,16,6.30
2018,12,14,04,17,6.30
2018,12,14,04,18,6.30
2018,12,14,04,19,6.30
2018,12,14,04,20,6.30
2018,12,14,04,21,6.20
2018,12,14,04,22,6.20
2018,12,14,04,23,6.20
2018,12,14,04,24,6.20
2018,12,14,04,25,6.20
2018,12,14,04,26,6.10
2018,12,14,04,27,6.10
2018,12,14,04,28,6.10
2018,12,14,04,29,6.00
2018,12,14,04,30,6.00
2018,12,14,04,31,5.90
2018,12,14,04,32,5.90
2018,12,14,04,33,5.90
2018,12,14,04,34,5.90
2018,12,14,04,35,5.90
2018,12,14,04,36,5.90
2018,12,14,04,37,5.90
2018,12,14,04,38,5.90
2018,12,14,04,39,5.90
2018,12,14,04,40,5.90
2018,12,14,04,41,5.80
2018,12,14,04,42,5.80
2018,12,14,04,43,5.80
2018,12,14,04,44,5.80
2018,12,14,04,45,5.70
2018,12,14,04,46,5.70
2018,12,14,04,47,5.70
2018,12,14,04,48,5.60
2018,12,14,04,49,5.60
2018,12,14,04,50,5.60
2018,12,14,04,51,5.60
2018,12,14,04,52,5.60
2018,12,14,04,53,5.60
2018,12,14,04,54,5.60
2018,12,14,04,55,5.70
2018,12,14,04,56,5.70
2018,12,14,04,57,5.70
2018,12,14,04,58,5.70
2018,12,14,04,59,5.70
2018,12,14,05,00,5.70
2018,12,14,05,01,5.70
2018,12,14,05,02,5.70
2018,12,14,05,03,5.70
2018,12,14,05,04,5.70
2018,12,14,05,05,5.70
2018,12,14,05,06,5.70
2018,12,14,05,07,5.80
2018,12,14,05,08,5.80
2018,12,14,05,09,5.80
2018,12,14,05,10,5.80
2018,12,14,05,11,5.80
2018,12,14,05,12,5.80
2018,12,14,05,13,5.90
2018,12,14,05,14,5.90
2018,12,14,05,15,5.90
2018,12,14,05,16,6.00
2018,12,14,05,17,6.00
2018,12,14,05,18,6.00
2018,12,14,05,19,6.00
2018,12,14,05,20,6.00
2018,12,14,05,21,5.90
2018,12,14,05,22,5.90
2018,12,14,05,23,5.90
2018,12,14,05,24,5.90
2018,12,14,05,25,5.90
2018,12,14,05,26,5.90
2018,12,14,05,27,5.90
2018,12,14,05,28,5.90
2018,12,14,05,29,5.90
2018,12,14,05,30,5.90
2018,12,14,05,31,5.90
2018,12,14,05,32,5.90
2018,12,14,05,33,5.90
2018,12,14,05,34,5.90
2018,12,14,05,35,5.90
2018,12,14,05,36,5.90
2018,12,14,05,37,5.90
2018,12,14,05,38,5.90
2018,12,14,05,39,6.00
2018,12,14,05,40,6.10
2018,12,14,05,41,6.20
2018,12,14,05,42,6.10
2018,12,14,05,43,6.10
2018,12,14,05,44,6.10
2018,12,14,05,45,6.10
2018,12,14,05,46,6.10
2018,12,14,05,47,6.10
2018,12,14,05,48,6.20
2018,12,14,05,49,6.10
2018,12,14,05,50,6.10
2018,12,14,05,51,6.10
2018,12,14,05,52,6.10
2018,12,14,05,53,6.10
2018,12,14,05,54,6.10
2018,12,14,05,55,6.00
2018,12,14,05,56,6.00
2018,12,14,05,57,6.00
2018,12,14,05,58,6.00
2018,12,14,05,59,6.00
2018,12,14,06,00,6.00
2018,12,14,06,01,6.00
2018,12,14,06,02,6.00
2018,12,14,06,03,6.00
2018,12,14,06,04,6.00
2018,12,14,06,05,6.00
2018,12,14,06,06,6.00
2018,12,14,06,07,6.10
2018,12,14,06,08,6.10
2018,12,14,06,09,6.10
2018,12,14,06,10,6.10
2018,12,14,06,11,6.10
2018,12,14,06,12,6.20
2018,12,14,06,13,6.10
2018,12,14,06,14,6.20
2018,12,14,06,15,6.20
2018,12,14,06,16,6.20
2018,12,14,06,17,6.20
2018,12,14,06,18,6.10
2018,12,14,06,19,6.10
2018,12,14,06,20,6.10
2018,12,14,06,21,6.00
2018,12,14,06,22,6.00
2018,12,14,06,23,5.90
2018,12,14,06,24,5.90
2018,12,14,06,25,5.90
2018,12,14,06,26,5.90
2018,12,14,06,27,5.90
2018,12,14,06,28,6.00
2018,12,14,06,29,6.00
2018,12,14,06,30,6.00
2018,12,14,06,31,6.10
2018,12,14,06,32,6.10
2018,12,14,06,33,6.10
2018,12,14,06,34,6.10
2018,12,14,06,35,6.10
2018,12,14,06,36,6.10
2018,12,14,06,37,6.10
2018,12,14,06,38,6.10
2018,12,14,06,39,6.10
2018,12,14,06,40,6.10
2018,12,14,06,41,6.10
2018,12,14,06,42,6.00
2018,12,14,06,43,6.10
2018,12,14,06,44,6.10
2018,12,14,06,45,6.10
2018,12,14,06,46,6.10
2018,12,14,06,47,6.10
2018,12,14,06,48,6.10
2018,12,14,06,49,6.10
2018,12,14,06,50,6.10
2018,12,14,06,51,6.10
2018,12,14,06,52,6.10
2018,12,14,06,53,6.10
2018,12,14,06,54,6.10
2018,12,14,06,55,6.10
2018,12,14,06,56,6.10
2018,12,14,06,57,6.10
2018,12,14,06,58,6.10
2018,12,14,06,59,6.10
2018,12,14,07,00,6.10
2018,12,14,07,01,6.10
2018,12,14,07,02,6.10
2018,12,14,07,03,6.10
2018,12,14,07,04,6.00
2018,12,14,07,05,6.00
2018,12,14,07,06,6.00
2018,12,14,07,07,6.00
2018,12,14,07,08,6.00
2018,12,14,07,09,6.00
2018,12,14,07,10,6.00
2018,12,14,07,11,6.00
2018,12,14,07,12,6.00
2018,12,14,07,13,6.00
2018,12,14,07,14,6.00
2018,12,14,07,15,6.00
2018,12,14,07,16,6.00
2018,12,14,07,17,6.00
2018,12,14,07,18,6.00
2018,12,14,07,19,6.00
2018,12,14,07,20,6.00
2018,12,14,07,21,6.00
2018,12,14,07,22,5.90
2018,12,14,07,23,5.90
2018,12,14,07,24,5.90
2018,12,14,07,25,5.90
2018,12,14,07,26,5.90
2018,12,14,07,27,5.90
2018,12,14,07,28,5.90
2018,12,14,07,29,5.90
2018,12,14,07,30,5.90
2018,12,14,07,31,5.90
2018,12,14,07,32,6.00
2018,12,14,07,33,6.30
2018,12,14,07,34,6.60
2018,12,14,07,35,6.90
2018,12,14,07,36,7.20
2018,12,14,07,37,7.60
2018,12,14,07,38,8.00
2018,12,14,07,39,8.20
2018,12,14,07,40,8.50
2018,12,14,07,41,8.70
2018,12,14,07,42,8.90
2018,12,14,07,43,8.90
2018,12,14,07,44,8.80
2018,12,14,07,45,8.70
2018,12,14,07,46,8.60
2018,12,14,07,47,8.50
2018,12,14,07,48,8.40
2018,12,14,07,49,8.40
2018,12,14,07,50,8.50
2018,12,14,07,51,8.90
2018,12,14,07,52,9.30
2018,12,14,07,53,9.80
2018,12,14,07,54,10.20
2018,12,14,07,55,10.30
2018,12,14,07,56,10.40
2018,12,14,07,57,10.50
2018,12,14,07,58,10.60
2018,12,14,07,59,10.80
2018,12,14,08,00,10.80
2018,12,14,08,01,10.90
2018,12,14,08,02,11.10
2018,12,14,08,03,11.30
2018,12,14,08,04,11.60
2018,12,14,08,05,11.70
2018,12,14,08,06,11.70
2018,12,14,08,07,11.60
2018,12,14,08,08,11.50
2018,12,14,08,09,11.30
2018,12,14,08,10,11.30
2018,12,14,08,11,11.30
2018,12,14,08,12,11.30
2018,12,14,08,13,11.30
2018,12,14,08,14,11.30
2018,12,14,08,15,11.30
2018,12,14,08,16,11.30
2018,12,14,08,17,11.30
2018,12,14,08,18,11.30
2018,12,14,08,19,11.20
2018,12,14,08,20,11.20
2018,12,14,08,21,11.20
2018,12,14,08,22,11.20
2018,12,14,08,23,11.20
2018,12,14,08,24,11.20
2018,12,14,08,25,11.20
2018,12,14,08,26,11.30
2018,12,14,08,27,11.20
2018,12,14,08,28,11.20
2018,12,14,08,29,11.30
2018,12,14,08,30,11.30
2018,12,14,08,31,11.30
2018,12,14,08,32,11.40
2018,12,14,08,33,11.50
2018,12,14,08,34,11.50
2018,12,14,08,35,11.50
2018,12,14,08,36,11.50
2018,12,14,08,37,11.40
2018,12,14,08,38,11.40
2018,12,14,08,39,11.40
2018,12,14,08,40,11.40
2018,12,14,08,41,11.40
2018,12,14,08,42,11.40
2018,12,14,08,43,11.40
2018,12,14,08,44,11.50
2018,12,14,08,45,11.50
2018,12,14,08,46,11.60
2018,12,14,08,47,11.60
2018,12,14,08,48,11.70
2018,12,14,08,49,11.80
2018,12,14,08,50,11.80
2018,12,14,08,51,11.80
2018,12,14,08,52,11.80
2018,12,14,08,53,11.70
2018,12,14,08,54,11.70
2018,12,14,08,55,11.70
2018,12,14,08,56,11.70
2018,12,14,08,57,11.60
2018,12,14,08,58,11.60
2018,12,14,08,59,11.60
2018,12,14,09,00,11.60
2018,12,14,09,01,11.60
2018,12,14,09,02,11.60
2018,12,14,09,03,11.70
2018,12,14,09,04,11.70
2018,12,14,09,05,11.70
2018,12,14,09,06,11.70
2018,12,14,09,07,11.70
2018,12,14,09,08,11.70
2018,12,14,09,09,11.70
2018,12,14,09,10,11.70
2018,12,14,09,11,11.70
2018,12,14,09,12,11.70
2018,12,14,09,13,11.70
2018,12,14,09,14,11.70
2018,12,14,09,15,11.70
2018,12,14,09,16,11.70
2018,12,14,09,17,11.70
2018,12,14,09,18,11.80
2018,12,14,09,19,11.70
2018,12,14,09,20,11.70
2018,12,14,09,21,11.70
2018,12,14,09,22,11.70
2018,12,14,09,23,11.70
2018,12,14,09,24,11.70
2018,12,14,09,25,11.70
2018,12,14,09,26,11.70
2018,12,14,09,27,11.70
2018,12,14,09,28,11.70
2018,12,14,09,29,11.70
2018,12,14,09,30,11.70
2018,12,14,09,31,11.60
2018,12,14,09,32,11.70
2018,12,14,09,33,11.70
2018,12,14,09,34,11.70
2018,12,14,09,35,11.80
2018,12,14,09,36,11.70
2018,12,14,09,37,11.70
2018,12,14,09,38,11.60
2018,12,14,09,39,11.60
2018,12,14,09,40,11.60
2018,12,14,09,41,11.60
2018,12,14,09,42,11.70
2018,12,14,09,43,11.70
2018,12,14,09,44,11.70
2018,12,14,09,45,11.70
2018,12,14,09,46,11.70
2018,12,14,09,47,11.70
2018,12,14,09,48,11.80
2018,12,14,09,49,11.90
2018,12,14,09,50,12.00
2018,12,14,09,51,12.20
2018,12,14,09,52,12.30
2018,12,14,09,53,12.30
2018,12,14,09,54,12.40
2018,12,14,09,55,12.40
2018,12,14,09,56,12.40
2018,12,14,09,57,12.40
2018,12,14,09,58,12.40
2018,12,14,09,59,12.50
2018,12,14,10,00,12.40
2018,12,14,10,01,12.40
2018,12,14,10,02,12.40
2018,12,14,10,03,12.40
2018,12,14,10,04,12.40
2018,12,14,10,05,12.40
2018,12,14,10,06,12.50
2018,12,14,10,07,12.50
2018,12,14,10,08,12.40
2018,12,14,10,09,12.40
2018,12,14,10,10,12.30
2018,12,14,10,11,12.30
2018,12,14,10,12,12.30
2018,12,14,10,13,12.30
2018,12,14,10,14,12.40
2018,12,14,10,15,12.50
2018,12,14,10,16,12.40
2018,12,14,10,17,12.40
2018,12,14,10,18,12.30
2018,12,14,10,19,12.30
2018,12,14,10,20,12.20
2018,12,14,10,21,12.20
2018,12,14,10,22,12.30
2018,12,14,10,23,12.30
2018,12,14,10,24,12.30
2018,12,14,10,25,12.40
2018,12,14,10,26,12.50
2018,12,14,10,27,12.50
2018,12,14,10,28,12.50
2018,12,14,10,29,12.50
2018,12,14,10,30,12.60
2018,12,14,10,31,12.60
2018,12,14,10,32,12.60
2018,12,14,10,33,12.60
2018,12,14,10,34,12.70
2018,12,14,10,35,12.70
2018,12,14,10,36,12.70
2018,12,14,10,37,12.70
2018,12,14,10,38,12.70
2018,12,14,10,39,12.60
2018,12,14,10,40,12.50
2018,12,14,10,41,12.40
2018,12,14,10,42,12.40
2018,12,14,10,43,12.40
2018,12,14,10,44,12.40
2018,12,14,10,45,12.40
2018,12,14,10,46,12.40
2018,12,14,10,47,12.40
2018,12,14,10,48,12.40
2018,12,14,10,49,12.40
2018,12,14,10,50,12.40
2018,12,14,10,51,12.40
2018,12,14,10,52,12.40
2018,12,14,10,53,12.40
2018,12,14,10,54,12.40
2018,12,14,10,55,12.40
2018,12,14,10,56,12.40
2018,12,14,10,57,12.40
2018,12,14,10,58,12.40
2018,12,14,10,59,12.40
2018,12,14,11,00,12.40
2018,12,14,11,01,12.30
2018,12,14,11,02,12.30
2018,12,14,11,03,12.30
2018,12,14,11,04,12.40
2018,12,14,11,05,12.40
2018,12,14,11,06,12.40
2018,12,14,11,07,12.40
2018,12,14,11,08,12.40
2018,12,14,11,09,12.40
2018,12,14,11,10,12.40
2018,12,14,11,11,12.40
2018,12,14,11,12,12.40
2018,12,14,11,13,12.40
2018,12,14,11,14,12.40
2018,12,14,11,15,12.30
2018,12,14,11,16,12.30
2018,12,14,11,17,12.30
2018,12,14,11,18,12.20
2018,12,14,11,19,12.10
2018,12,14,11,20,12.10
2018,12,14,11,21,12.10
2018,12,14,11,22,12.10
2018,12,14,11,23,12.10
2018,12,14,11,24,12.20
2018,12,14,11,25,12.20
2018,12,14,11,26,12.20
2018,12,14,11,27,12.20
2018,12,14,11,28,12.20
2018,12,14,11,29,12.20
2018,12,14,11,30,12.20
2018,12,14,11,31,12.30
2018,12,14,11,32,12.30
2018,12,14,11,33,12.30
2018,12,14,11,34,12.30
2018,12,14,11,35,12.40
2018,12,14,11,36,12.40
2018,12,14,11,37,12.40
2018,12,14,11,38,12.50
2018,12,14,11,39,12.50
2018,12,14,11,40,12.50
2018,12,14,11,41,12.60
2018,12,14,11,42,12.60
2018,12,14,11,43,12.60
2018,12,14,11,44,12.60
2018,12,14,11,45,12.60
2018,12,14,11,46,12.60
2018,12,14,11,47,12.60
2018,12,14,11,48,12.70
2018,12,14,11,49,12.70
2018,12,14,11,50,12.70
2018,12,14,11,51,12.60
2018,12,14,11,52,12.60
2018,12,14,11,53,12.60
2018,12,14,11,54,12.60
2018,12,14,11,55,12.70
2018,12,14,11,56,12.70
2018,12,14,11,57,12.70
2018,12,14,11,58,12.80
2018,12,14,11,59,12.80
2018,12,14,12,00,12.80
2018,12,14,12,01,12.80
2018,12,14,12,02,12.80
2018,12,14,12,03,12.80
2018,12,14,12,04,12.90
2018,12,14,12,05,12.90
2018,12,14,12,06,12.90
2018,12,14,12,07,12.90
2018,12,14,12,08,12.90
2018,12,14,12,09,12.90
2018,12,14,12,10,13.00
2018,12,14,12,11,13.00
2018,12,14,12,12,13.00
2018,12,14,12,13,13.00
2018,12,14,12,14,13.00
2018,12,14,12,15,13.00
2018,12,14,12,16,13.10
2018,12,14,12,17,13.10
2018,12,14,12,18,13.10
2018,12,14,12,19,13.10
2018,12,14,12,20,13.10
2018,12,14,12,21,13.10
2018,12,14,12,22,13.10
2018,12,14,12,23,13.10
2018,12,14,12,24,13.10
2018,12,14,12,25,13.10
2018,12,14,12,26,13.10
2018,12,14,12,27,13.10
2018,12,14,12,28,13.10
2018,12,14,12,29,13.10
2018,12,14,12,30,13.10
2018,12,14,12,31,13.10
2018,12,14,12,32,13.20
2018,12,14,12,33,13.20
2018,12,14,12,34,13.20
2018,12,14,12,35,13.20
2018,12,14,12,36,13.20
2018,12,14,12,37,13.20
2018,12,14,12,38,13.20
2018,12,14,12,39,13.20
2018,12,14,12,40,13.20
2018,12,14,12,41,13.20
2018,12,14,12,42,13.20
2018,12,14,12,43,13.20
2018,12,14,12,44,13.30
2018,12,14,12,45,13.30
2018,12,14,12,46,13.20
2018,12,14,12,47,13.20
2018,12,14,12,48,13.20
2018,12,14,12,49,13.20
2018,12,14,12,50,13.20
2018,12,14,12,51,13.20
2018,12,14,12,52,13.20
2018,12,14,12,53,13.20
2018,12,14,12,54,13.20
2018,12,14,12,55,13.20
2018,12,14,12,56,13.20
2018,12,14,12,57,13.20
2018,12,14,12,58,13.20
2018,12,14,12,59,13.20
2018,12,14,13,00,13.20
2018,12,14,13,01,13.20
2018,12,14,13,02,13.20
2018,12,14,13,03,13.20
2018,12,14,13,04,13.20
2018,12,14,13,05,13.30
2018,12,14,13,06,13.30
2018,12,14,13,07,13.30
2018,12,14,13,08,13.30
2018,12,14,13,09,13.30
2018,12,14,13,10,13.30
2018,12,14,13,11,13.40
2018,12,14,13,12,13.40
2018,12,14,13,13,13.40
2018,12,14,13,14,13.40
2018,12,14,13,15,13.40
2018,12,14,13,16,13.50
2018,12,14,13,17,13.60
2018,12,14,13,18,13.60
2018,12,14,13,19,13.60
2018,12,14,13,20,13.60
2018,12,14,13,21,13.60
2018,12,14,13,22,13.60
2018,12,14,13,23,13.60
2018,12,14,13,24,13.60
2018,12,14,13,25,13.60
2018,12,14,13,26,13.70
2018,12,14,13,27,13.80
2018,12,14,13,28,13.80
2018,12,14,13,29,13.90
2018,12,14,13,30,13.90
2018,12,14,13,31,13.90
2018,12,14,13,32,13.90
2018,12,14,13,33,13.80
2018,12,14,13,34,13.80
2018,12,14,13,35,13.80
2018,12,14,13,36,13.80
2018,12,14,13,37,13.80
2018,12,14,13,38,13.70
2018,12,14,13,39,13.70
2018,12,14,13,40,13.70
2018,12,14,13,41,13.60
2018,12,14,13,42,13.50
2018,12,14,13,43,13.50
2018,12,14,13,44,13.40
2018,12,14,13,45,13.40
2018,12,14,13,46,13.40
2018,12,14,13,47,13.40
2018,12,14,13,48,13.40
2018,12,14,13,49,13.40
2018,12,14,13,50,13.30
2018,12,14,13,51,13.20
2018,12,14,13,52,13.20
2018,12,14,13,53,13.30
2018,12,14,13,54,13.30
2018,12,14,13,55,13.30
2018,12,14,13,56,13.40
2018,12,14,13,57,13.40
2018,12,14,13,58,13.40
2018,12,14,13,59,13.40
2018,12,14,14,00,13.30
2018,12,14,14,01,13.30
2018,12,14,14,02,13.30
2018,12,14,14,03,13.30
2018,12,14,14,04,13.40
2018,12,14,14,05,13.50
2018,12,14,14,06,13.50
2018,12,14,14,07,13.50
2018,12,14,14,08,13.40
2018,12,14,14,09,13.40
2018,12,14,14,10,13.30
2018,12,14,14,11,13.30
2018,12,14,14,12,13.30
2018,12,14,14,13,13.30
2018,12,14,14,14,13.30
2018,12,14,14,15,13.30
2018,12,14,14,16,13.30
2018,12,14,14,17,13.30
2018,12,14,14,18,13.30
2018,12,14,14,19,13.30
2018,12,14,14,20,13.30
2018,12,14,14,21,13.30
2018,12,14,14,22,13.40
2018,12,14,14,23,13.40
2018,12,14,14,24,13.40
2018,12,14,14,25,13.30
2018,12,14,14,26,13.30
2018,12,14,14,27,13.20
2018,12,14,14,28,13.20
2018,12,14,14,29,13.20
2018,12,14,14,30,13.20
2018,12,14,14,31,13.10
2018,12,14,14,32,13.10
2018,12,14,14,33,13.10
2018,12,14,14,34,13.20
2018,12,14,14,35,13.20
2018,12,14,14,36,13.20
2018,12,14,14,37,13.20
2018,12,14,14,38,13.20
2018,12,14,14,39,13.30
2018,12,14,14,40,13.30
2018,12,14,14,41,13.30
2018,12,14,14,42,13.40
2018,12,14,14,43,13.40
2018,12,14,14,44,13.40
2018,12,14,14,45,13.50
2018,12,14,14,46,13.50
2018,12,14,14,47,13.60
2018,12,14,14,48,13.60
2018,12,14,14,49,13.60
2018,12,14,14,50,13.70
2018,12,14,14,51,13.70
2018,12,14,14,52,13.60
2018,12,14,14,53,13.60
2018,12,14,14,54,13.60
2018,12,14,14,55,13.60
2018,12,14,14,56,13.60
2018,12,14,14,57,13.50
2018,12,14,14,58,13.50
2018,12,14,14,59,13.40
2018,12,14,15,00,13.40
2018,12,14,15,01,13.40
2018,12,14,15,02,13.30
2018,12,14,15,03,13.30
2018,12,14,15,04,13.20
2018,12,14,15,05,13.20
2018,12,14,15,06,13.20
2018,12,14,15,07,13.10
2018,12,14,15,08,13.10
2018,12,14,15,09,13.10
2018,12,14,15,10,13.10
2018,12,14,15,11,13.00
2018,12,14,15,12,13.00
2018,12,14,15,13,13.00
2018,12,14,15,14,13.00
2018,12,14,15,15,13.00
2018,12,14,15,16,13.00
2018,12,14,15,17,13.00
2018,12,14,15,18,13.00
2018,12,14,15,19,13.00
2018,12,14,15,20,13.00
2018,12,14,15,21,13.10
2018,12,14,15,22,13.20
2018,12,14,15,23,13.20
2018,12,14,15,24,13.30
2018,12,14,15,25,13.30
2018,12,14,15,26,13.40
2018,12,14,15,27,13.40
2018,12,14,15,28,13.40
2018,12,14,15,29,13.40
2018,12,14,15,30,13.40
2018,12,14,15,31,13.40
2018,12,14,15,32,13.50
2018,12,14,15,33,13.50
2018,12,14,15,34,13.50
2018,12,14,15,35,13.50
2018,12,14,15,36,13.50
2018,12,14,15,37,13.50
2018,12,14,15,38,13.50
2018,12,14,15,39,13.50
2018,12,14,15,40,13.40
2018,12,14,15,41,13.40
2018,12,14,15,42,13.40
2018,12,14,15,43,13.40
2018,12,14,15,44,13.40
2018,12,14,15,45,13.40
2018,12,14,15,46,13.40
2018,12,14,15,47,13.40
2018,12,14,15,48,13.40
2018,12,14,15,49,13.40
2018,12,14,15,50,13.40
2018,12,14,15,51,13.50
2018,12,14,15,52,13.40
2018,12,14,15,53,13.40
2018,12,14,15,54,13.40
2018,12,14,15,55,13.40
2018,12,14,15,56,13.30
2018,12,14,15,57,13.30
2018,12,14,15,58,13.30
2018,12,14,15,59,13.30
2018,12,14,16,00,13.30
2018,12,14,16,01,13.20
2018,12,14,16,02,13.20
2018,12,14,16,03,13.20
2018,12,14,16,04,13.20
2018,12,14,16,05,13.10
2018,12,14,16,06,13.10
2018,12,14,16,07,13.10
2018,12,14,16,08,13.10
2018,12,14,16,09,13.10
2018,12,14,16,10,13.00
2018,12,14,16,11,13.00
2018,12,14,16,12,12.90
2018,12,14,16,13,12.90
2018,12,14,16,14,12.90
2018,12,14,16,15,12.90
2018,12,14,16,16,12.90
2018,12,14,16,17,12.80
2018,12,14,16,18,12.80
2018,12,14,16,19,12.80
2018,12,14,16,20,12.80
2018,12,14,16,21,12.80
2018,12,14,16,22,12.80
2018,12,14,16,23,12.80
2018,12,14,16,24,12.70
2018,12,14,16,25,12.70
2018,12,14,16,26,12.70
2018,12,14,16,27,12.70
2018,12,14,16,28,12.70
2018,12,14,16,29,12.70
2018,12,14,16,30,12.60
2018,12,14,16,31,12.60
2018,12,14,16,32,12.60
2018,12,14,16,33,12.60
2018,12,14,16,34,12.50
2018,12,14,16,35,12.50
2018,12,14,16,36,12.50
2018,12,14,16,37,12.40
2018,12,14,16,38,12.40
2018,12,14,16,39,12.40
2018,12,14,16,40,12.40
2018,12,14,16,41,12.30
2018,12,14,16,42,12.30
2018,12,14,16,43,12.30
2018,12,14,16,44,12.30
2018,12,14,16,45,12.30
2018,12,14,16,46,12.20
2018,12,14,16,47,12.20
2018,12,14,16,48,12.20
2018,12,14,16,49,12.20
2018,12,14,16,50,12.10
2018,12,14,16,51,12.10
2018,12,14,16,52,12.10
2018,12,14,16,53,12.10
2018,12,14,16,54,12.10
2018,12,14,16,55,12.10
2018,12,14,16,56,12.10
2018,12,14,16,57,12.00
2018,12,14,16,58,12.00
2018,12,14,16,59,12.00
2018,12,14,17,00,11.90
2018,12,14,17,01,11.90
2018,12,14,17,02,11.90
2018,12,14,17,03,11.80
2018,12,14,17,04,11.80
2018,12,14,17,05,11.80
2018,12,14,17,06,11.80
2018,12,14,17,07,11.70
2018,12,14,17,08,11.70
2018,12,14,17,09,11.70
2018,12,14,17,10,11.70
2018,12,14,17,11,11.60
2018,12,14,17,12,11.60
2018,12,14,17,13,11.60
2018,12,14,17,14,11.60
2018,12,14,17,15,11.60
2018,12,14,17,16,11.50
2018,12,14,17,17,11.50
2018,12,14,17,18,11.40
2018,12,14,17,19,11.40
2018,12,14,17,20,11.40
2018,12,14,17,21,11.40
2018,12,14,17,22,11.40
2018,12,14,17,23,11.40
2018,12,14,17,24,11.40
2018,12,14,17,25,11.50
2018,12,14,17,26,11.50
2018,12,14,17,27,11.60
2018,12,14,17,28,11.70
2018,12,14,17,29,11.70
2018,12,14,17,30,11.60
2018,12,14,17,31,11.50
2018,12,14,17,32,11.50
2018,12,14,17,33,11.30
2018,12,14,17,34,11.20
2018,12,14,17,35,11.20
2018,12,14,17,36,11.00
2018,12,14,17,37,10.90
2018,12,14,17,38,10.80
2018,12,14,17,39,10.70
2018,12,14,17,40,10.60